Falls City, NE

11:22 AM CDT on April 30, 2017 (GMT -0500)
Brenner

Weather History for KFNB - October, 2014

Change the Weather History Date:

Saturday, October 11, 2014

  Actual Average Record
Temperature  
Mean Temperature 48 °F -  
Max Temperature 62 °F 68 °F 88 °F (2015)
Min Temperature 33 °F 43 °F 24 °F (1987)
Degree Days  
Heating Degree Days 18    
Moisture  
Dew Point 37 °F    
Average Humidity 70    
Maximum Humidity 96    
Minimum Humidity 41    
Precipitation  
Precipitation 0.00 in - - ()
Sea Level Pressure  
Sea Level Pressure 30.16 in    
Wind  
Wind Speed 4 mph (SSE)    
Max Wind Speed 7 mph    
Max Gust Speed -    
Visibility 10 miles    
Events      
Averages and records for this station are not official NWS values.
T = Trace of Precipitation, MM = Missing Value Source: NWS Daily Summary

Daily Weather History Graph

Daily Weather History Graph

Search for Another Location

Airport or City:

Trip Planner

Search our weather history database for the weather conditions in past years. The results will help you decide how hot, cold, wet, or windy it might be!

Date:

Astronomy

Oct. 11, 2014 Rise Set
Actual Time 7:28 AM CDT 6:48 PM CDT
Civil Twilight 7:01 AM CDT 7:15 PM CDT
Nautical Twilight 6:30 AM CDT 7:47 PM CDT
Astronomical Twilight 5:58 AM CDT 8:18 PM CDT
Moon 9:17 PM CDT (10/11) 10:53 AM CDT (10/11)
Length of Visible Light 12h 14m
Length of Day
11h 19m
Waning Gibbous, 87% of the Moon is Illuminated
Oct 11
Waning Gibbous
Oct 15
Last Quarter
Oct 23
New
Oct 30
First Quarter
Nov 6
Full

Hourly Weather History & Observations

Time (CDT) Temp. Windchill Dew Point Humidity Pressure Visibility Wind Dir Wind Speed Gust Speed Precip Events Conditions
12:53 AM 39.0 °F 34.8 °F 36.0 °F 89% 30.21 in 10.0 mi NW 5.8 mph - N/A   Clear
1:53 AM 39.0 °F 35.7 °F 36.0 °F 89% 30.22 in 10.0 mi NW 4.6 mph - N/A   Clear
2:53 AM 37.0 °F 31.6 °F 35.1 °F 93% 30.19 in 10.0 mi NW 6.9 mph - N/A   Clear
3:53 AM 37.4 °F - 35.6 °F 93% 30.18 in 10.0 mi Calm Calm - N/A   Clear
4:53 AM 35.6 °F - 33.8 °F 93% 30.20 in 10.0 mi Calm Calm - N/A   Clear
5:53 AM 35.1 °F 32.2 °F 34.0 °F 96% 30.23 in 10.0 mi West 3.5 mph - N/A   Clear
6:53 AM 34.0 °F 31.0 °F 33.1 °F 96% 30.24 in 10.0 mi NW 3.5 mph - N/A   Clear
7:53 AM 33.1 °F 30.0 °F 32.0 °F 96% 30.25 in 10.0 mi WNW 3.5 mph - N/A   Clear
8:53 AM 39.0 °F - 37.0 °F 93% 30.26 in 10.0 mi Calm Calm - N/A   Clear
9:53 AM 46.0 °F - 39.0 °F 76% 30.25 in 10.0 mi Calm Calm - N/A   Clear
10:53 AM 54.0 °F - 39.0 °F 57% 30.24 in 10.0 mi East 6.9 mph - N/A   Clear
11:53 AM 55.0 °F - 37.0 °F 51% 30.23 in 10.0 mi SSE 4.6 mph - N/A   Clear
12:53 PM 57.9 °F - 37.0 °F 46% 30.20 in 10.0 mi Variable 4.6 mph - N/A   Clear
1:53 PM 60.1 °F - 37.0 °F 42% 30.16 in 10.0 mi North - - N/A   Clear
2:53 PM 62.1 °F - 37.9 °F 41% 30.13 in 10.0 mi Variable 5.8 mph - N/A   Clear
3:53 PM 60.8 °F - 37.4 °F 42% 30.10 in 10.0 mi SSE 4.6 mph - N/A   Clear
4:53 PM 62.1 °F - 37.9 °F 41% 30.09 in 10.0 mi South 4.6 mph - N/A   Clear
5:53 PM 59.0 °F - 37.0 °F 44% 30.08 in 10.0 mi SE 5.8 mph - N/A   Clear
6:53 PM 55.9 °F - 36.0 °F 47% 30.07 in 10.0 mi ESE 3.5 mph - N/A   Clear
7:53 PM 53.1 °F - 37.0 °F 55% 30.07 in 10.0 mi SE 3.5 mph - N/A   Clear
8:53 PM 50.0 °F - 39.0 °F 66% 30.06 in 10.0 mi Calm Calm - N/A   Clear
9:53 PM 48.0 °F - 39.0 °F 71% 30.06 in 10.0 mi SE 4.6 mph - N/A   Clear
10:53 PM 46.9 °F - 39.0 °F 74% 30.04 in 10.0 mi SE 3.5 mph - N/A   Clear
11:53 PM 45.0 °F 43.5 °F 39.0 °F 80% 30.02 in 10.0 mi SE 3.5 mph - N/A   Clear